When you browse on this site, cookies collect data to enhance your experience and personalize the content and advertising you see.
Visit our Privacy Policy to learn more. By continuing to use the site, you agree to this use of cookies and data.
  • In Hungary
  • List of Countries
  • For 7 days
  • Water Temperature
  • Weather Map
  • News
  • Weather Widgets
  • user-avatar
    Login

    Hourly Weather Suloiha

    Today, 24 January, Friday

    Time Temperature Precipitation Wind Pressure Humidity
    00:00 -6°C° 0 mm 2 mps 742 mmHg 82%
    01:00 -7°C° 0 mm 3 mps 741 mmHg 82%
    02:00 -6°C° 0 mm 3 mps 741 mmHg 82%
    03:00 -6°C° 0.1 mm 3 mps 740 mmHg 85%
    04:00 -5°C° 0.1 mm 4 mps 739 mmHg 89%
    05:00 -5°C° 0.1 mm 4 mps 737 mmHg 92%
    06:00 -5°C° 0.3 mm 5 mps 737 mmHg 92%
    07:00 -5°C° 0.3 mm 5 mps 736 mmHg 93%
    08:00 -5°C° 0.3 mm 6 mps 735 mmHg 93%
    09:00 -4°C° 0 mm 5 mps 734 mmHg 91%
    10:00 -2°C° 0 mm 5 mps 734 mmHg 89%
    11:00 -1°C° 0 mm 5 mps 733 mmHg 86%
    12:00 -1°C° 0 mm 5 mps 733 mmHg 88%
    13:00 0°C° 0 mm 5 mps 733 mmHg 90%
    14:00 0°C° 0 mm 5 mps 732 mmHg 92%
    15:00 0°C° 0.1 mm 5 mps 732 mmHg 91%
    16:00 -1°C° 0.1 mm 5 mps 732 mmHg 89%
    17:00 -1°C° 0.1 mm 4 mps 732 mmHg 88%
    18:00 -1°C° 0 mm 4 mps 732 mmHg 88%
    19:00 -2°C° 0 mm 4 mps 732 mmHg 87%
    20:00 -3°C° 0 mm 4 mps 733 mmHg 86%
    21:00 -3°C° 0 mm 4 mps 733 mmHg 86%
    22:00 -3°C° 0 mm 4 mps 733 mmHg 86%
    23:00 -3°C° 0 mm 4 mps 733 mmHg 86%

    Tomorrow, 25 January, Saturday

    Time Temperature Precipitation Wind Pressure Humidity
    00:00 -4°C° 0 mm 4 mps 733 mmHg 88%
    01:00 -4°C° 0 mm 4 mps 732 mmHg 90%
    02:00 -4°C° 0 mm 4 mps 732 mmHg 92%
    03:00 -4°C° 0 mm 4 mps 732 mmHg 88%
    04:00 -3°C° 0 mm 4 mps 732 mmHg 85%
    05:00 -2°C° 0 mm 4 mps 731 mmHg 81%
    06:00 -3°C° 0 mm 4 mps 731 mmHg 83%
    07:00 -3°C° 0 mm 4 mps 730 mmHg 86%
    08:00 -3°C° 0 mm 4 mps 730 mmHg 88%
    09:00 -2°C° 0.5 mm 5 mps 729 mmHg 86%
    10:00 -3°C° 0.5 mm 6 mps 729 mmHg 84%
    11:00 -2°C° 0.5 mm 7 mps 728 mmHg 82%
    12:00 -3°C° 0.2 mm 6 mps 728 mmHg 78%
    13:00 -3°C° 0.2 mm 6 mps 728 mmHg 74%
    14:00 -4°C° 0.2 mm 6 mps 729 mmHg 70%
    15:00 -4°C° 0 mm 6 mps 729 mmHg 73%
    16:00 -5°C° 0 mm 6 mps 730 mmHg 76%
    17:00 -5°C° 0 mm 6 mps 730 mmHg 78%
    18:00 -5°C° 0 mm 6 mps 731 mmHg 79%
    19:00 -6°C° 0 mm 6 mps 731 mmHg 80%
    20:00 -6°C° 0 mm 5 mps 732 mmHg 81%
    21:00 -6°C° 0 mm 5 mps 733 mmHg 82%
    22:00 -6°C° 0 mm 5 mps 734 mmHg 82%
    23:00 -6°C° 0 mm 5 mps 735 mmHg 82%

    Day after tomorrow, 26 January, Sunday

    Time Temperature Precipitation Wind Pressure Humidity
    00:00 -6°C° 0 mm 5 mps 736 mmHg 82%
    01:00 -6°C° 0 mm 5 mps 736 mmHg 82%
    02:00 -7°C° 0 mm 5 mps 737 mmHg 81%
    03:00 -7°C° 0 mm 5 mps 738 mmHg 82%
    04:00 -7°C° 0 mm 4 mps 739 mmHg 83%
    05:00 -7°C° 0 mm 4 mps 739 mmHg 84%
    06:00 -7°C° 0 mm 4 mps 740 mmHg 84%
    07:00 -8°C° 0 mm 4 mps 740 mmHg 85%
    08:00 -7°C° 0 mm 3 mps 741 mmHg 85%
    09:00 -7°C° 0 mm 4 mps 741 mmHg 84%
    10:00 -7°C° 0 mm 4 mps 741 mmHg 84%
    11:00 -5°C° 0 mm 4 mps 742 mmHg 83%
    12:00 -5°C° 0 mm 4 mps 741 mmHg 82%
    13:00 -4°C° 0 mm 3 mps 741 mmHg 82%
    14:00 -4°C° 0 mm 3 mps 741 mmHg 82%
    15:00 -4°C° 0.4 mm 3 mps 740 mmHg 86%
    16:00 -4°C° 0.4 mm 4 mps 739 mmHg 90%
    17:00 -4°C° 0.4 mm 4 mps 739 mmHg 95%
    18:00 -3°C° 0.6 mm 4 mps 738 mmHg 95%
    19:00 -2°C° 0.6 mm 4 mps 738 mmHg 96%
    20:00 0°C° 0.6 mm 4 mps 737 mmHg 96%
    21:00 0°C° 0.3 mm 5 mps 737 mmHg 95%
    22:00 0°C° 0.3 mm 5 mps 737 mmHg 94%
    23:00 +1°C° 0.3 mm 6 mps 737 mmHg 93%

    27 January, Monday

    Time Temperature Precipitation Wind Pressure Humidity
    00:00 0°C° 0.1 mm 5 mps 738 mmHg 94%
    01:00 0°C° 0.1 mm 5 mps 739 mmHg 95%
    02:00 0°C° 0.1 mm 5 mps 739 mmHg 96%
    03:00 -1°C° 0.1 mm 4 mps 740 mmHg 95%
    04:00 -1°C° 0.1 mm 3 mps 740 mmHg 95%
    05:00 -2°C° 0.1 mm 3 mps 741 mmHg 94%
    06:00 -3°C° 0.1 mm 2 mps 742 mmHg 94%
    07:00 -4°C° 0.1 mm 2 mps 742 mmHg 93%
    08:00 -5°C° 0.1 mm 2 mps 743 mmHg 93%
    09:00 -5°C° 0 mm 2 mps 744 mmHg 90%
    10:00 -5°C° 0 mm 2 mps 744 mmHg 86%
    11:00 -5°C° 0 mm 2 mps 745 mmHg 83%
    12:00 -5°C° 0 mm 2 mps 745 mmHg 82%
    13:00 -5°C° 0 mm 2 mps 745 mmHg 80%
    14:00 -5°C° 0 mm 2 mps 745 mmHg 79%
    15:00 -5°C° 0 mm 2 mps 746 mmHg 80%
    16:00 -6°C° 0 mm 2 mps 746 mmHg 80%
    17:00 -7°C° 0 mm 3 mps 746 mmHg 81%
    18:00 -7°C° 0.2 mm 3 mps 746 mmHg 84%
    19:00 -7°C° 0.2 mm 3 mps 746 mmHg 86%
    20:00 -8°C° 0.2 mm 3 mps 746 mmHg 88%
    21:00 -9°C° 0.2 mm 4 mps 746 mmHg 89%
    22:00 -9°C° 0.2 mm 4 mps 746 mmHg 91%
    23:00 -9°C° 0.2 mm 4 mps 746 mmHg 92%

    28 January, Tuesday

    Time Temperature Precipitation Wind Pressure Humidity
    00:00 -9°C° 0.2 mm 4 mps 746 mmHg 92%
    01:00 -8°C° 0.2 mm 3 mps 746 mmHg 92%
    02:00 -7°C° 0.2 mm 3 mps 746 mmHg 92%
    03:00 -8°C° 0.1 mm 3 mps 746 mmHg 92%
    04:00 -8°C° 0.1 mm 3 mps 746 mmHg 92%
    05:00 -8°C° 0.1 mm 3 mps 746 mmHg 93%
    06:00 -8°C° 0.1 mm 3 mps 746 mmHg 93%
    07:00 -8°C° 0.1 mm 3 mps 746 mmHg 93%
    08:00 -8°C° 0.1 mm 3 mps 746 mmHg 93%
    09:00 -7°C° 0 mm 3 mps 746 mmHg 92%
    10:00 -7°C° 0 mm 3 mps 746 mmHg 91%
    11:00 -6°C° 0 mm 3 mps 746 mmHg 90%
    12:00 -5°C° 0 mm 2 mps 746 mmHg 91%
    13:00 -5°C° 0 mm 2 mps 746 mmHg 91%
    14:00 -4°C° 0 mm 2 mps 746 mmHg 92%
    15:00 -4°C° 0.1 mm 2 mps 746 mmHg 93%
    16:00 -4°C° 0.1 mm 2 mps 746 mmHg 94%
    17:00 -4°C° 0.1 mm 2 mps 746 mmHg 95%
    18:00 -5°C° 0 mm 3 mps 747 mmHg 95%
    19:00 -5°C° 0.1 mm 3 mps 747 mmHg 95%
    20:00 -5°C° 0.1 mm 3 mps 747 mmHg 95%
    21:00 -4°C° 0 mm 3 mps 747 mmHg 95%
    22:00 -4°C° 0 mm 3 mps 747 mmHg 95%
    23:00 -2°C° 0 mm 3 mps 747 mmHg 96%

    29 January, Wednesday

    Time Temperature Precipitation Wind Pressure Humidity
    00:00 -2°C° 0.1 mm 3 mps 746 mmHg 95%
    01:00 -2°C° 0.1 mm 3 mps 746 mmHg 95%
    02:00 -2°C° 0.1 mm 3 mps 746 mmHg 95%
    03:00 -2°C° 0.1 mm 3 mps 746 mmHg 95%
    04:00 -2°C° 0.1 mm 3 mps 746 mmHg 96%
    05:00 -1°C° 0.1 mm 3 mps 746 mmHg 97%
    06:00 -2°C° 0.1 mm 4 mps 745 mmHg 96%
    07:00 -2°C° 0.1 mm 4 mps 745 mmHg 95%
    08:00 -2°C° 0.1 mm 4 mps 745 mmHg 94%
    09:00 -2°C° 0 mm 4 mps 745 mmHg 93%
    10:00 -2°C° 0 mm 4 mps 745 mmHg 93%
    11:00 -2°C° 0 mm 4 mps 745 mmHg 92%
    12:00 -2°C° 0 mm 4 mps 745 mmHg 93%
    13:00 -2°C° 0 mm 4 mps 744 mmHg 94%
    14:00 -1°C° 0 mm 4 mps 744 mmHg 95%
    15:00 -2°C° 0 mm 4 mps 744 mmHg 95%
    16:00 -2°C° 0 mm 4 mps 744 mmHg 96%
    17:00 -2°C° 0 mm 4 mps 743 mmHg 96%
    18:00 -2°C° 0.1 mm 4 mps 743 mmHg 96%
    19:00 -2°C° 0.1 mm 4 mps 743 mmHg 96%
    20:00 -2°C° 0.1 mm 4 mps 743 mmHg 96%
    21:00 -2°C° 0.1 mm 4 mps 743 mmHg 96%
    22:00 -2°C° 0.1 mm 4 mps 742 mmHg 96%
    23:00 -2°C° 0.1 mm 4 mps 742 mmHg 95%
    Show more